GLONASS-K 1 (37372 NORAD) Tracking and Keplerian Element Data

This shows tracking and keplerian element data for the satellite.

Feedback or suggestion? Click here.




ElementValue
Catalog37372
NameGLONASS-K 1
Epoch Orbit8458
Epoch Day9.84816897
Epoch Year2022
RAAN8.6758
Inclination65.9502
Eccentricity0.0017495
Argument of Perigee233.8795
Mean Anonmoly311.0602
Mean Motion2.13063318
Decay Rate-5.5E-07
L11 37372U 11009A 22009.84816897 -.00000055 00000+0 00000+0 0 9996
L22 37372 65.9502 8.6758 0017495 233.8795 311.0602 2.13063318 84583



Live tracking and technical data element details for GLONASS-K 1 (NORAD 37372). GLONASS-K 1 can be tracked NOW for your location showing map with azimuth and elevation plus other details from your city location.







IsCatalogInMostPopularTable: catalog: 37372, numindb: 355
Update: records affected: 1



GetName: 37372 GLONASS-K 1

Hit Count: updated at: Thu, 22 May 2025 02:56:07 GMT